| time (UTC) | temp F | wind direction | speed knots | gust knots | rain 1hr in | rain 24hr in | rain mn in | humidity % | barometer mb |
| 20260505102215 | 64 | 47 | 0.0 | 2.6 | 0.00 | 0.00 | 0.00 | 100 | 1016.8 |
| 20260505102049 | 64 | 47 | 0.0 | 2.6 | 0.00 | 0.00 | 0.00 | 100 | 1016.8 |
| 20260505101828 | 64 | 70 | 0.0 | 0.0 | 0.00 | 0.00 | 0.00 | 100 | 1016.6 |
| 20260505101549 | 64 | 67 | 0.9 | 2.6 | 0.00 | 0.00 | 0.00 | 100 | 1016.7 |
| 20260505101049 | 64 | 70 | 0.0 | 0.0 | 0.00 | 0.00 | 0.00 | 100 | 1016.6 |
| 20260505101027 | 64 | 70 | 0.0 | 0.0 | 0.00 | 0.00 | 0.00 | 100 | 1016.5 |
| 20260505100821 | 64 | 70 | 0.0 | 0.0 | 0.00 | 0.00 | 0.00 | 100 | 1016.7 |
| 20260505100549 | 64 | 70 | 0.0 | 0.0 | 0.00 | 0.00 | 0.00 | 100 | 1016.7 |
| 20260505100049 | 64 | 70 | 0.0 | 0.0 | 0.00 | 0.00 | 0.00 | 100 | 1016.6 |
| 20260505095549 | 64 | 70 | 0.0 | 0.0 | 0.00 | 0.00 | 0.00 | 100 | 1016.5 |
| 20260505095455 | 64 | 70 | 0.0 | 0.0 | 0.00 | 0.00 | 0.00 | 100 | 1016.5 |
| 20260505095054 | 64 | 33 | 0.0 | 2.6 | 0.00 | 0.00 | 0.00 | 100 | 1016.5 |
| 20260505095049 | 64 | 70 | 0.0 | 0.0 | 0.00 | 0.00 | 0.00 | 100 | 1016.5 |
| 20260505094549 | 64 | 33 | 0.0 | 2.6 | 0.00 | 0.00 | 0.00 | 100 | 1016.5 |
| 20260505094049 | 64 | 68 | 1.7 | 2.6 | 0.00 | 0.00 | 0.00 | 100 | 1016.5 |
| 20260505093549 | 64 | 53 | 0.0 | 2.6 | 0.00 | 0.00 | 0.00 | 100 | 1016.4 |
| 20260505093255 | 64 | 95 | 0.9 | 1.7 | 0.00 | 0.00 | 0.00 | 100 | 1016.4 |
| 20260505093049 | 64 | 95 | 0.9 | 1.7 | 0.00 | 0.00 | 0.00 | 100 | 1016.4 |
| 20260505092549 | 64 | 95 | 0.9 | 1.7 | 0.00 | 0.00 | 0.00 | 100 | 1016.4 |
| 20260505092049 | 64 | 73 | 0.0 | 2.6 | 0.00 | 0.00 | 0.00 | 100 | 1016.4 |
| 20260505091549 | 64 | 59 | 0.0 | 2.6 | 0.00 | 0.00 | 0.00 | 100 | 1016.3 |
| 20260505091335 | 64 | 59 | 0.9 | 2.6 | 0.00 | 0.00 | 0.00 | 100 | 1016.2 |
| 20260505091049 | 64 | 59 | 0.9 | 2.6 | 0.00 | 0.00 | 0.00 | 100 | 1016.2 |
| 20260505090549 | 64 | 94 | 0.9 | 1.7 | 0.00 | 0.00 | 0.00 | 100 | 1016.2 |
| 20260505090509 | 64 | 111 | 0.9 | 2.6 | 0.00 | 0.00 | 0.00 | 100 | 1016.3 |
| 20260505090049 | 64 | 111 | 0.9 | 2.6 | 0.00 | 0.00 | 0.00 | 100 | 1016.3 |
| 20260505090010 | 64 | 46 | 0.0 | 1.7 | 0.00 | 0.00 | 0.00 | 100 | 1016.3 |
| 20260505085935 | 64 | 46 | 0.0 | 1.7 | 0.00 | 0.00 | 0.00 | 100 | 1016.3 |
| 20260505085549 | 64 | 46 | 0.0 | 1.7 | 0.00 | 0.00 | 0.00 | 100 | 1016.3 |
| 20260505085509 | 64 | 99 | 0.9 | 2.6 | 0.00 | 0.00 | 0.00 | 100 | 1016.2 |
| 20260505085059 | 65 | 81 | 0.0 | 0.9 | 0.00 | 0.00 | 0.00 | 100 | 1016.3 |
| 20260505085049 | 64 | 99 | 0.9 | 2.6 | 0.00 | 0.00 | 0.00 | 100 | 1016.2 |
| 20260505084802 | 65 | 81 | 0.0 | 0.9 | 0.00 | 0.00 | 0.00 | 100 | 1016.3 |
| 20260505084549 | 65 | 81 | 0.0 | 0.9 | 0.00 | 0.00 | 0.00 | 100 | 1016.3 |
| 20260505084513 | 65 | 64 | 0.0 | 0.9 | 0.00 | 0.00 | 0.00 | 100 | 1016.4 |
| 20260505084049 | 65 | 64 | 0.0 | 0.9 | 0.00 | 0.00 | 0.00 | 100 | 1016.4 |
| 20260505083549 | 65 | 40 | 0.0 | 0.9 | 0.00 | 0.00 | 0.00 | 100 | 1016.4 |
| 20260505083435 | 65 | 74 | 0.0 | 2.6 | 0.00 | 0.00 | 0.00 | 100 | 1016.2 |
| 20260505083202 | 65 | 87 | 1.7 | 3.5 | 0.00 | 0.00 | 0.00 | 100 | 1016.2 |
| 20260505083049 | 65 | 74 | 0.0 | 2.6 | 0.00 | 0.00 | 0.00 | 100 | 1016.2 |
| 20260505082549 | 65 | 81 | 1.7 | 2.6 | 0.00 | 0.00 | 0.00 | 100 | 1016.2 |
| 20260505082505 | 65 | 87 | 1.7 | 3.5 | 0.00 | 0.00 | 0.00 | 100 | 1016.2 |
| 20260505082049 | 65 | 87 | 1.7 | 3.5 | 0.00 | 0.00 | 0.00 | 100 | 1016.2 |
| 20260505081549 | 65 | 64 | 1.7 | 3.5 | 0.00 | 0.00 | 0.00 | 100 | 1016.2 |
| 20260505081323 | 65 | 97 | 0.9 | 2.6 | 0.00 | 0.00 | 0.00 | 100 | 1016.1 |
| 20260505081049 | 65 | 97 | 0.9 | 2.6 | 0.00 | 0.00 | 0.00 | 100 | 1016.1 |
| 20260505081006 | 65 | 112 | 2.6 | 2.6 | 0.00 | 0.00 | 0.00 | 100 | 1016.2 |
| 20260505080549 | 65 | 112 | 2.6 | 2.6 | 0.00 | 0.00 | 0.00 | 100 | 1016.2 |
| 20260505080515 | 65 | 104 | 0.9 | 1.7 | 0.00 | 0.00 | 0.00 | 100 | 1016.3 |
| 20260505080049 | 65 | 104 | 0.9 | 1.7 | 0.00 | 0.00 | 0.00 | 100 | 1016.3 |
| 20260505075549 | 65 | 73 | 0.0 | 0.9 | 0.00 | 0.00 | 0.00 | 100 | 1016.4 |
| 20260505075059 | 65 | 63 | 0.0 | 0.0 | 0.00 | 0.00 | 0.00 | 100 | 1016.6 |
| 20260505075049 | 65 | 63 | 0.0 | 0.0 | 0.00 | 0.00 | 0.00 | 100 | 1016.5 |
| 20260505074549 | 65 | 63 | 0.0 | 0.0 | 0.00 | 0.00 | 0.00 | 100 | 1016.6 |
| 20260505074156 | 65 | 45 | 0.0 | 1.7 | 0.00 | 0.00 | 0.00 | 100 | 1016.6 |
| 20260505074049 | 65 | 45 | 0.0 | 1.7 | 0.00 | 0.00 | 0.00 | 100 | 1016.6 |
| 20260505074019 | 66 | 57 | 0.0 | 0.9 | 0.00 | 0.00 | 0.00 | 100 | 1016.4 |
| 20260505073631 | 66 | 53 | 0.0 | 2.6 | 0.00 | 0.00 | 0.00 | 100 | 1016.6 |
| 20260505073555 | 66 | 53 | 0.0 | 2.6 | 0.00 | 0.00 | 0.00 | 100 | 1016.6 |
| 20260505073549 | 66 | 57 | 0.0 | 0.9 | 0.00 | 0.00 | 0.00 | 100 | 1016.4 |
| 20260505073519 | 66 | 53 | 0.0 | 2.6 | 0.00 | 0.00 | 0.00 | 100 | 1016.6 |
| 20260505073049 | 66 | 53 | 0.0 | 2.6 | 0.00 | 0.00 | 0.00 | 100 | 1016.6 |
| 20260505073014 | 66 | 73 | 0.9 | 1.7 | 0.00 | 0.00 | 0.00 | 100 | 1016.6 |
| 20260505072914 | 66 | 73 | 0.9 | 1.7 | 0.00 | 0.00 | 0.00 | 100 | 1016.6 |
| 20260505072549 | 66 | 73 | 0.9 | 1.7 | 0.00 | 0.00 | 0.00 | 100 | 1016.6 |
| 20260505072516 | 66 | 84 | 0.9 | 2.6 | 0.00 | 0.00 | 0.00 | 100 | 1016.5 |
| 20260505072155 | 66 | 60 | 0.0 | 4.3 | 0.00 | 0.00 | 0.00 | 100 | 1016.4 |
| 20260505072049 | 66 | 84 | 0.9 | 2.6 | 0.00 | 0.00 | 0.00 | 100 | 1016.5 |
| 20260505071549 | 66 | 68 | 0.0 | 3.5 | 0.00 | 0.00 | 0.00 | 100 | 1016.5 |
| 20260505071454 | 66 | 60 | 0.0 | 4.3 | 0.00 | 0.00 | 0.00 | 100 | 1016.4 |
| 20260505071049 | 66 | 60 | 0.0 | 4.3 | 0.00 | 0.00 | 0.00 | 100 | 1016.4 |
| 20260505070839 | 67 | 50 | 1.7 | 2.6 | 0.00 | 0.00 | 0.00 | 100 | 1016.4 |
| 20260505070549 | 67 | 50 | 1.7 | 2.6 | 0.00 | 0.00 | 0.00 | 100 | 1016.4 |
| 20260505070532 | 67 | 112 | 0.9 | 3.5 | 0.00 | 0.00 | 0.00 | 100 | 1016.6 |
| 20260505070050 | 67 | 112 | 0.9 | 3.5 | 0.00 | 0.00 | 0.00 | 100 | 1016.6 |
| 20260505065550 | 67 | 84 | 0.9 | 4.3 | 0.00 | 0.00 | 0.00 | 100 | 1016.8 |
| 20260505065521 | 67 | 81 | 2.6 | 3.5 | 0.00 | 0.00 | 0.00 | 100 | 1016.6 |
| 20260505065050 | 67 | 81 | 2.6 | 3.5 | 0.00 | 0.00 | 0.00 | 100 | 1016.6 |
| 20260505064550 | 67 | 81 | 1.7 | 3.5 | 0.00 | 0.00 | 0.00 | 100 | 1016.7 |
| 20260505064208 | 67 | 70 | 1.7 | 3.5 | 0.00 | 0.00 | 0.00 | 100 | 1016.8 |
| 20260505064050 | 67 | 70 | 1.7 | 3.5 | 0.00 | 0.00 | 0.00 | 100 | 1016.8 |
| 20260505063937 | 67 | 52 | 0.0 | 2.6 | 0.00 | 0.00 | 0.00 | 100 | 1016.9 |
| 20260505063550 | 67 | 52 | 0.0 | 2.6 | 0.00 | 0.00 | 0.00 | 100 | 1016.9 |
| 20260505063455 | 67 | 71 | 1.7 | 4.3 | 0.00 | 0.00 | 0.00 | 100 | 1017.0 |
| 20260505063349 | 67 | 71 | 1.7 | 4.3 | 0.00 | 0.00 | 0.00 | 100 | 1017.0 |
| 20260505063050 | 67 | 71 | 1.7 | 4.3 | 0.00 | 0.00 | 0.00 | 100 | 1017.0 |
| 20260505063015 | 68 | 90 | 0.9 | 3.5 | 0.00 | 0.00 | 0.00 | 100 | 1017.2 |
| 20260505062634 | 68 | 104 | 1.7 | 3.5 | 0.00 | 0.00 | 0.00 | 100 | 1017.5 |
| 20260505062550 | 68 | 90 | 0.9 | 3.5 | 0.00 | 0.00 | 0.00 | 100 | 1017.2 |
| 20260505062112 | 68 | 71 | 2.6 | 3.5 | 0.00 | 0.00 | 0.00 | 100 | 1017.4 |
| 20260505062050 | 68 | 104 | 1.7 | 3.5 | 0.00 | 0.00 | 0.00 | 100 | 1017.5 |
| 20260505062007 | 68 | 45 | 1.7 | 2.6 | 0.00 | 0.00 | 0.00 | 100 | 1017.3 |
| 20260505061550 | 68 | 45 | 1.7 | 2.6 | 0.00 | 0.00 | 0.00 | 100 | 1017.3 |
| 20260505061345 | 68 | 80 | 1.7 | 4.3 | 0.00 | 0.00 | 0.00 | 100 | 1017.4 |
| 20260505061050 | 68 | 80 | 1.7 | 4.3 | 0.00 | 0.00 | 0.00 | 100 | 1017.4 |
| 20260505060607 | 68 | 63 | 0.9 | 3.5 | 0.00 | 0.00 | 0.00 | 100 | 1017.4 |
| 20260505060550 | 68 | 88 | 0.9 | 2.6 | 0.00 | 0.00 | 0.00 | 100 | 1017.5 |
| 20260505060050 | 68 | 63 | 0.9 | 3.5 | 0.00 | 0.00 | 0.00 | 100 | 1017.4 |
| 20260505055550 | 68 | 71 | 2.6 | 3.5 | 0.00 | 0.00 | 0.00 | 100 | 1017.4 |
| 20260505055459 | 68 | 47 | 0.9 | 5.2 | 0.00 | 0.00 | 0.00 | 100 | 1017.3 |
| 20260505055050 | 68 | 47 | 0.9 | 5.2 | 0.00 | 0.00 | 0.00 | 100 | 1017.3 |
| 20260505054550 | 68 | 67 | 1.7 | 3.5 | 0.00 | 0.00 | 0.00 | 100 | 1017.5 |
| 20260505054050 | 68 | 28 | 0.0 | 4.3 | 0.00 | 0.00 | 0.00 | 100 | 1017.5 |
| 20260505053550 | 68 | 80 | 0.9 | 2.6 | 0.00 | 0.00 | 0.00 | 100 | 1017.8 |
| 20260505053135 | 68 | 112 | 0.9 | 3.5 | 0.00 | 0.00 | 0.00 | 100 | 1017.7 |
| 20260505053050 | 68 | 88 | 0.0 | 2.6 | 0.00 | 0.00 | 0.00 | 100 | 1017.7 |
| 20260505052550 | 68 | 112 | 0.9 | 3.5 | 0.00 | 0.00 | 0.00 | 100 | 1017.7 |
| 20260505052312 | 67 | 47 | 0.9 | 1.7 | 0.00 | 0.00 | 0.00 | 100 | 1017.8 |
| 20260505052050 | 68 | 40 | 0.0 | 2.6 | 0.00 | 0.00 | 0.00 | 100 | 1017.8 |
| 20260505051550 | 67 | 47 | 0.9 | 1.7 | 0.00 | 0.00 | 0.00 | 100 | 1017.8 |
| 20260505051506 | 67 | 1 | 0.0 | 2.6 | 0.00 | 0.00 | 0.00 | 100 | 1017.7 |
| 20260505051050 | 67 | 1 | 0.0 | 2.6 | 0.00 | 0.00 | 0.00 | 100 | 1017.7 |
| 20260505050704 | 67 | 64 | 1.7 | 3.5 | 0.00 | 0.00 | 0.00 | 100 | 1017.7 |
| 20260505050550 | 67 | 64 | 1.7 | 3.5 | 0.00 | 0.00 | 0.00 | 100 | 1017.7 |
| 20260505050439 | 67 | 71 | 2.6 | 2.6 | 0.00 | 0.00 | 0.00 | 100 | 1017.9 |
| 20260505041724 | 68 | 111 | 2.6 | 2.6 | 0.00 | 0.00 | 0.00 | 100 | 1017.9 |
| 20260505041550 | 68 | 85 | 0.0 | 2.6 | 0.00 | 0.00 | 0.00 | 100 | 1018.0 |
| 20260505041050 | 68 | 111 | 2.6 | 2.6 | 0.00 | 0.00 | 0.00 | 100 | 1017.9 |
| 20260505041038 | 68 | 81 | 0.9 | 1.7 | 0.00 | 0.00 | 0.00 | 100 | 1018.1 |
| 20260505040550 | 68 | 81 | 0.9 | 1.7 | 0.00 | 0.00 | 0.00 | 100 | 1018.1 |
| 20260505040050 | 68 | 87 | 0.9 | 2.6 | 0.00 | 0.00 | 0.00 | 100 | 1018.0 |
| 20260505035956 | 68 | 59 | 0.9 | 2.6 | 0.00 | 0.00 | 0.00 | 100 | 1018.0 |
| 20260505035708 | 68 | 59 | 0.9 | 2.6 | 0.00 | 0.00 | 0.00 | 100 | 1018.0 |
| 20260505035550 | 68 | 59 | 0.9 | 2.6 | 0.00 | 0.00 | 0.00 | 100 | 1018.0 |
| 20260505035050 | 69 | 102 | 0.9 | 2.6 | 0.00 | 0.00 | 0.00 | 100 | 1018.0 |
| 20260505034734 | 69 | 81 | 1.7 | 3.5 | 0.00 | 0.00 | 0.00 | 100 | 1018.1 |
| 20260505034550 | 69 | 81 | 1.7 | 3.5 | 0.00 | 0.00 | 0.00 | 100 | 1018.1 |
| 20260505034307 | 69 | 104 | 2.6 | 3.5 | 0.00 | 0.00 | 0.00 | 100 | 1018.2 |
| 20260505034050 | 69 | 75 | 1.7 | 2.6 | 0.00 | 0.00 | 0.00 | 100 | 1018.2 |
| 20260505033634 | 69 | 82 | 2.6 | 3.5 | 0.00 | 0.00 | 0.00 | 100 | 1018.2 |
| 20260505033550 | 69 | 104 | 2.6 | 3.5 | 0.00 | 0.00 | 0.00 | 100 | 1018.2 |
| 20260505033504 | 69 | 81 | 0.9 | 3.5 | 0.00 | 0.00 | 0.00 | 100 | 1018.2 |
| 20260505033050 | 69 | 82 | 2.6 | 3.5 | 0.00 | 0.00 | 0.00 | 100 | 1018.2 |
| 20260505033015 | 69 | 81 | 0.9 | 3.5 | 0.00 | 0.00 | 0.00 | 100 | 1018.2 |
| 20260505032550 | 69 | 81 | 0.9 | 3.5 | 0.00 | 0.00 | 0.00 | 100 | 1018.2 |
| 20260505032305 | 70 | 78 | 0.9 | 2.6 | 0.00 | 0.00 | 0.00 | 100 | 1018.2 |
| 20260505032050 | 70 | 78 | 0.9 | 2.6 | 0.00 | 0.00 | 0.00 | 100 | 1018.2 |
| 20260505031737 | 70 | 43 | 1.7 | 2.6 | 0.00 | 0.00 | 0.00 | 100 | 1018.4 |
| 20260505031550 | 70 | 91 | 1.7 | 2.6 | 0.00 | 0.00 | 0.00 | 100 | 1018.2 |
| 20260505031458 | 70 | 43 | 1.7 | 2.6 | 0.00 | 0.00 | 0.00 | 100 | 1018.4 |
| 20260505031050 | 70 | 43 | 1.7 | 2.6 | 0.00 | 0.00 | 0.00 | 100 | 1018.4 |
| 20260505030841 | 71 | 126 | 1.7 | 4.3 | 0.00 | 0.00 | 0.00 | 100 | 1018.3 |
| 20260505030708 | 71 | 101 | 1.7 | 5.2 | 0.00 | 0.00 | 0.00 | 100 | 1018.3 |
| 20260505030550 | 70 | 81 | 0.0 | 3.5 | 0.00 | 0.00 | 0.00 | 100 | 1018.4 |
| 20260505030050 | 71 | 126 | 1.7 | 4.3 | 0.00 | 0.00 | 0.00 | 100 | 1018.3 |
| 20260505025551 | 71 | 95 | 2.6 | 4.3 | 0.00 | 0.00 | 0.00 | 100 | 1018.3 |
| 20260505025051 | 71 | 101 | 1.7 | 5.2 | 0.00 | 0.00 | 0.00 | 100 | 1018.3 |
| 20260505024551 | 71 | 60 | 3.5 | 7.0 | 0.00 | 0.00 | 0.00 | 100 | 1018.1 |
| 20260505024227 | 71 | 130 | 2.6 | 7.0 | 0.00 | 0.00 | 0.00 | 100 | 1018.0 |
| 20260505024051 | 71 | 130 | 2.6 | 7.0 | 0.00 | 0.00 | 0.00 | 100 | 1018.0 |
| 20260505023551 | 71 | 119 | 4.3 | 7.0 | 0.00 | 0.00 | 0.00 | 100 | 1018.0 |
| 20260505023457 | 72 | 102 | 3.5 | 6.1 | 0.00 | 0.00 | 0.00 | 100 | 1018.0 |
| 20260505023051 | 72 | 102 | 3.5 | 6.1 | 0.00 | 0.00 | 0.00 | 100 | 1018.0 |
| 20260505022551 | 71 | 105 | 1.7 | 5.2 | 0.00 | 0.00 | 0.00 | 100 | 1018.0 |
| 20260505022051 | 72 | 56 | 2.6 | 7.0 | 0.00 | 0.00 | 0.00 | 100 | 1018.0 |
| 20260505022008 | 72 | 67 | 3.5 | 6.1 | 0.00 | 0.00 | 0.00 | 100 | 1017.9 |
| 20260505021551 | 72 | 67 | 3.5 | 6.1 | 0.00 | 0.00 | 0.00 | 100 | 1017.9 |
| 20260505021051 | 72 | 98 | 3.5 | 6.1 | 0.00 | 0.00 | 0.00 | 100 | 1017.9 |
| 20260505021008 | 72 | 66 | 4.3 | 7.0 | 0.00 | 0.00 | 0.00 | 100 | 1017.9 |
| 20260505020551 | 72 | 66 | 4.3 | 7.0 | 0.00 | 0.00 | 0.00 | 100 | 1017.9 |
| 20260505020051 | 73 | 80 | 6.1 | 7.8 | 0.00 | 0.00 | 0.00 | 100 | 1017.8 |
| 20260505015912 | 73 | 97 | 4.3 | 7.8 | 0.00 | 0.00 | 0.00 | 100 | 1018.0 |
| 20260505015722 | 73 | 118 | 2.6 | 6.1 | 0.00 | 0.00 | 0.00 | 100 | 1017.9 |
| 20260505015551 | 73 | 97 | 4.3 | 7.8 | 0.00 | 0.00 | 0.00 | 100 | 1018.0 |
| 20260505015051 | 73 | 118 | 2.6 | 6.1 | 0.00 | 0.00 | 0.00 | 100 | 1017.9 |
| 20260505015008 | 73 | 115 | 4.3 | 7.8 | 0.00 | 0.00 | 0.00 | 100 | 1017.9 |
| 20260505014740 | 73 | 104 | 3.5 | 7.0 | 0.00 | 0.00 | 0.00 | 100 | 1017.8 |
| 20260505014551 | 73 | 115 | 4.3 | 7.8 | 0.00 | 0.00 | 0.00 | 100 | 1017.9 |
| 20260505014051 | 73 | 104 | 3.5 | 7.0 | 0.00 | 0.00 | 0.00 | 100 | 1017.8 |
| 20260505013935 | 74 | 94 | 3.5 | 6.1 | 0.00 | 0.00 | 0.00 | 100 | 1017.6 |
| 20260505013557 | 73 | 71 | 4.3 | 9.6 | 0.00 | 0.00 | 0.00 | 100 | 1017.4 |
| 20260505013551 | 74 | 94 | 3.5 | 6.1 | 0.00 | 0.00 | 0.00 | 100 | 1017.6 |
| 20260505013220 | 73 | 71 | 4.3 | 9.6 | 0.00 | 0.00 | 0.00 | 100 | 1017.4 |
| 20260505013217 | 73 | 85 | 3.5 | 7.0 | 0.00 | 0.00 | 0.00 | 100 | 1017.6 |
| 20260505013051 | 73 | 71 | 4.3 | 9.6 | 0.00 | 0.00 | 0.00 | 100 | 1017.4 |
| 20260505012551 | 73 | 85 | 3.5 | 7.0 | 0.00 | 0.00 | 0.00 | 100 | 1017.6 |
| 20260505012051 | 73 | 57 | 1.7 | 7.0 | 0.00 | 0.00 | 0.00 | 100 | 1017.7 |
| 20260505012012 | 74 | 108 | 2.6 | 7.0 | 0.00 | 0.00 | 0.00 | 100 | 1017.6 |
| 20260505011551 | 74 | 108 | 2.6 | 7.0 | 0.00 | 0.00 | 0.00 | 100 | 1017.6 |
| 20260505011137 | 74 | 118 | 5.2 | 7.0 | 0.00 | 0.00 | 0.00 | 100 | 1017.3 |
| 20260505011051 | 74 | 81 | 5.2 | 7.0 | 0.00 | 0.00 | 0.00 | 100 | 1017.4 |
| 20260505010551 | 74 | 118 | 5.2 | 7.0 | 0.00 | 0.00 | 0.00 | 100 | 1017.3 |
| 20260505010051 | 74 | 88 | 4.3 | 6.1 | 0.00 | 0.00 | 0.00 | 100 | 1017.3 |
| 20260505005551 | 74 | 115 | 3.5 | 8.7 | 0.00 | 0.00 | 0.00 | 100 | 1017.3 |
| 20260505005138 | 75 | 88 | 6.1 | 8.7 | 0.00 | 0.00 | 0.00 | 100 | 1017.3 |
| 20260505005051 | 75 | 91 | 4.3 | 7.8 | 0.00 | 0.00 | 0.00 | 100 | 1017.2 |
| 20260505004551 | 75 | 88 | 6.1 | 8.7 | 0.00 | 0.00 | 0.00 | 100 | 1017.3 |
| 20260505004051 | 75 | 119 | 2.6 | 9.6 | 0.00 | 0.00 | 0.00 | 100 | 1017.1 |
| 20260505003948 | 76 | 102 | 4.3 | 8.7 | 0.00 | 0.00 | 0.00 | 100 | 1017.1 |
| 20260505003551 | 76 | 126 | 5.2 | 9.6 | 0.00 | 0.00 | 0.00 | 100 | 1017.2 |
| 20260505003051 | 76 | 102 | 4.3 | 8.7 | 0.00 | 0.00 | 0.00 | 100 | 1017.1 |
| 20260505002551 | 76 | 111 | 6.1 | 8.7 | 0.00 | 0.00 | 0.00 | 100 | 1017.1 |
| 20260505002051 | 76 | 116 | 2.6 | 11.3 | 0.00 | 0.00 | 0.00 | 100 | 1017.1 |
| 20260505002049 | 77 | 119 | 4.3 | 7.8 | 0.00 | 0.00 | 0.00 | 100 | 1016.9 |
| 20260505001551 | 77 | 119 | 4.3 | 7.8 | 0.00 | 0.00 | 0.00 | 100 | 1016.9 |
| 20260505001459 | 76 | 59 | 3.5 | 12.2 | 0.00 | 0.00 | 0.00 | 100 | 1016.5 |
| 20260505001051 | 76 | 105 | 5.2 | 9.6 | 0.00 | 0.00 | 0.00 | 100 | 1016.7 |
| 20260505000551 | 76 | 59 | 3.5 | 12.2 | 0.00 | 0.00 | 0.00 | 100 | 1016.5 |
| 20260505000051 | 77 | 91 | 7.8 | 9.6 | 0.00 | 0.00 | 0.00 | 100 | 1016.3 |
| 20260505000011 | 77 | 116 | 7.0 | 8.7 | 0.00 | 0.00 | 0.00 | 100 | 1016.3 |
| 20260504235604 | 77 | 105 | 5.2 | 10.4 | 0.00 | 0.00 | 0.00 | 100 | 1016.3 |
| 20260504235551 | 77 | 116 | 7.0 | 8.7 | 0.00 | 0.00 | 0.00 | 100 | 1016.3 |
| 20260504235051 | 77 | 105 | 5.2 | 10.4 | 0.00 | 0.00 | 0.00 | 100 | 1016.3 |
| 20260504234944 | 78 | 91 | 7.8 | 8.7 | 0.00 | 0.00 | 0.00 | 100 | 1015.9 |
| 20260504234551 | 77 | 95 | 5.2 | 8.7 | 0.00 | 0.00 | 0.00 | 100 | 1016.2 |
| 20260504234051 | 78 | 57 | 2.6 | 7.8 | 0.00 | 0.00 | 0.00 | 100 | 1016.2 |
| 20260504233551 | 78 | 109 | 6.1 | 8.7 | 0.00 | 0.00 | 0.00 | 100 | 1016.0 |
| 20260504233051 | 78 | 91 | 7.8 | 8.7 | 0.00 | 0.00 | 0.00 | 100 | 1015.9 |
| 20260504233046 | 80 | 91 | 7.0 | 10.4 | 0.00 | 0.00 | 0.00 | 100 | 1015.9 |
| 20260504232600 | 79 | 92 | 5.2 | 8.7 | 0.00 | 0.00 | 0.00 | 100 | 1016.0 |
| 20260504232551 | 79 | 147 | 4.3 | 8.7 | 0.00 | 0.00 | 0.00 | 100 | 1015.9 |
| 20260504232051 | 79 | 92 | 5.2 | 8.7 | 0.00 | 0.00 | 0.00 | 100 | 1016.0 |
| 20260504231551 | 79 | 95 | 2.6 | 8.7 | 0.00 | 0.00 | 0.00 | 100 | 1015.9 |
| 20260504231456 | 79 | 136 | 3.5 | 7.8 | 0.00 | 0.00 | 0.00 | 100 | 1016.0 |
| 20260504231051 | 79 | 136 | 3.5 | 7.8 | 0.00 | 0.00 | 0.00 | 100 | 1016.0 |
| 20260504230552 | 80 | 91 | 7.0 | 10.4 | 0.00 | 0.00 | 0.00 | 100 | 1015.9 |
| 20260504230426 | 79 | 140 | 7.0 | 10.4 | 0.00 | 0.00 | 0.00 | 100 | 1015.8 |
| 20260504230052 | 79 | 140 | 7.0 | 10.4 | 0.00 | 0.00 | 0.00 | 100 | 1015.8 |
| 20260504230046 | 81 | 119 | 5.2 | 9.6 | 0.00 | 0.00 | 0.00 | 100 | 1015.6 |
| 20260504225552 | 80 | 120 | 3.5 | 10.4 | 0.00 | 0.00 | 0.00 | 100 | 1015.5 |
| 20260504225052 | 81 | 119 | 5.2 | 9.6 | 0.00 | 0.00 | 0.00 | 100 | 1015.6 |
| 20260504224812 | 81 | 78 | 6.1 | 13.0 | 0.00 | 0.00 | 0.00 | 100 | 1015.6 |
| 20260504224552 | 81 | 78 | 6.1 | 13.0 | 0.00 | 0.00 | 0.00 | 100 | 1015.6 |
| 20260504224052 | 82 | 122 | 5.2 | 7.8 | 0.00 | 0.00 | 0.00 | 100 | 1015.8 |
| 20260504223552 | 82 | 94 | 3.5 | 9.6 | 0.00 | 0.00 | 0.00 | 100 | 1015.8 |
| 20260504223337 | 82 | 97 | 5.2 | 11.3 | 0.00 | 0.00 | 0.00 | 100 | 1015.8 |
| 20260504223052 | 82 | 97 | 5.2 | 11.3 | 0.00 | 0.00 | 0.00 | 100 | 1015.8 |
| 20260504222553 | 83 | 90 | 3.5 | 13.0 | 0.00 | 0.00 | 0.00 | 100 | 1015.7 |
| 20260504222129 | 83 | 90 | 3.5 | 13.0 | 0.00 | 0.00 | 0.00 | 100 | 1015.7 |
| 20260504222052 | 83 | 90 | 3.5 | 13.0 | 0.00 | 0.00 | 0.00 | 100 | 1015.7 |
| 20260504221934 | 82 | 102 | 7.0 | 10.4 | 0.00 | 0.00 | 0.00 | 100 | 1015.8 |
| 20260504221552 | 82 | 102 | 7.0 | 10.4 | 0.00 | 0.00 | 0.00 | 100 | 1015.8 |
| 20260504221052 | 83 | 143 | 5.2 | 7.8 | 0.00 | 0.00 | 0.00 | 100 | 1015.7 |
| 20260504220714 | 83 | 74 | 4.3 | 9.6 | 0.00 | 0.00 | 0.00 | 100 | 1015.8 |
| 20260504220552 | 83 | 74 | 4.3 | 9.6 | 0.00 | 0.00 | 0.00 | 100 | 1015.8 |
| 20260504220315 | 83 | 40 | 0.9 | 7.8 | 0.00 | 0.00 | 0.00 | 100 | 1015.8 |
| 20260504220052 | 83 | 40 | 0.9 | 7.8 | 0.00 | 0.00 | 0.00 | 100 | 1015.8 |
| 20260504215654 | 83 | 74 | 7.0 | 9.6 | 0.00 | 0.00 | 0.00 | 100 | 1015.8 |
| 20260504215552 | 83 | 74 | 7.0 | 9.6 | 0.00 | 0.00 | 0.00 | 100 | 1015.8 |
| 20260504215412 | 84 | 15 | 7.8 | 10.4 | 0.00 | 0.00 | 0.00 | 100 | 1015.6 |
| 20260504215137 | 84 | 15 | 7.8 | 10.4 | 0.00 | 0.00 | 0.00 | 100 | 1015.6 |
| 20260504215052 | 84 | 15 | 7.8 | 10.4 | 0.00 | 0.00 | 0.00 | 100 | 1015.6 |
| 20260504214552 | 84 | 97 | 6.1 | 11.3 | 0.00 | 0.00 | 0.00 | 100 | 1015.7 |
| 20260504214052 | 84 | 87 | 9.6 | 15.6 | 0.00 | 0.00 | 0.00 | 100 | 1015.8 |
| 20260504213820 | 84 | 102 | 7.8 | 9.6 | 0.00 | 0.00 | 0.00 | 100 | 1015.7 |
| 20260504213552 | 84 | 102 | 7.8 | 9.6 | 0.00 | 0.00 | 0.00 | 100 | 1015.7 |
| 20260504213244 | 84 | 95 | 6.1 | 7.8 | 0.00 | 0.00 | 0.00 | 100 | 1015.7 |
| 20260504213052 | 85 | 81 | 6.1 | 7.8 | 0.00 | 0.00 | 0.00 | 100 | 1015.7 |
| 20260504212552 | 84 | 95 | 6.1 | 7.8 | 0.00 | 0.00 | 0.00 | 100 | 1015.7 |
| 20260504212530 | 84 | 101 | 2.6 | 7.0 | 0.00 | 0.00 | 0.00 | 100 | 1015.8 |
| 20260504212052 | 84 | 156 | 2.6 | 4.3 | 0.00 | 0.00 | 0.00 | 100 | 1015.7 |
| 20260504211552 | 84 | 163 | 3.5 | 5.2 | 0.00 | 0.00 | 0.00 | 100 | 1015.8 |
| 20260504211320 | 84 | 101 | 2.6 | 7.0 | 0.00 | 0.00 | 0.00 | 100 | 1015.8 |
| 20260504211052 | 84 | 101 | 2.6 | 7.0 | 0.00 | 0.00 | 0.00 | 100 | 1015.8 |
| 20260504210958 | 84 | 101 | 5.2 | 7.8 | 0.00 | 0.00 | 0.00 | 100 | 1015.7 |
| 20260504210726 | 84 | 101 | 5.2 | 7.8 | 0.00 | 0.00 | 0.00 | 100 | 1015.7 |
| 20260504210552 | 84 | 101 | 5.2 | 7.8 | 0.00 | 0.00 | 0.00 | 100 | 1015.7 |
| 20260504210052 | 83 | 99 | 7.0 | 8.7 | 0.00 | 0.00 | 0.00 | 100 | 1015.9 |
| 20260504205841 | 83 | 102 | 6.1 | 9.6 | 0.00 | 0.00 | 0.00 | 100 | 1015.8 |
| 20260504205552 | 83 | 102 | 6.1 | 9.6 | 0.00 | 0.00 | 0.00 | 100 | 1015.8 |
| 20260504205052 | 83 | 97 | 7.8 | 12.2 | 0.00 | 0.00 | 0.00 | 100 | 1015.8 |
| 20260504204552 | 85 | 70 | 10.4 | 13.0 | 0.00 | 0.00 | 0.00 | 100 | 1015.8 |
| 20260504204207 | 85 | 140 | 3.5 | 6.1 | 0.00 | 0.00 | 0.00 | 100 | 1015.9 |
| 20260504204052 | 85 | 140 | 3.5 | 6.1 | 0.00 | 0.00 | 0.00 | 100 | 1015.9 |
| 20260504203943 | 84 | 137 | 1.7 | 8.7 | 0.00 | 0.00 | 0.00 | 100 | 1016.0 |
| 20260504203552 | 83 | 119 | 0.0 | 7.0 | 0.00 | 0.00 | 0.00 | 100 | 1015.9 |
| 20260504203052 | 83 | 52 | 4.3 | 8.7 | 0.00 | 0.00 | 0.00 | 100 | 1016.0 |
| 20260504202825 | 84 | 61 | 6.1 | 10.4 | 0.00 | 0.00 | 0.00 | 100 | 1016.0 |
| 20260504202552 | 84 | 61 | 6.1 | 10.4 | 0.00 | 0.00 | 0.00 | 100 | 1016.0 |
| 20260504202304 | 85 | 95 | 3.5 | 10.4 | 0.00 | 0.00 | 0.00 | 100 | 1016.1 |
| 20260504202052 | 85 | 95 | 3.5 | 10.4 | 0.00 | 0.00 | 0.00 | 100 | 1016.1 |
| 20260504201552 | 84 | 64 | 7.0 | 13.9 | 0.00 | 0.00 | 0.00 | 100 | 1016.0 |
| 20260504201341 | 84 | 137 | 1.7 | 8.7 | 0.00 | 0.00 | 0.00 | 100 | 1016.0 |
| 20260504201052 | 84 | 137 | 1.7 | 8.7 | 0.00 | 0.00 | 0.00 | 100 | 1016.0 |
| 20260504201015 | 85 | 112 | 4.3 | 8.7 | 0.00 | 0.00 | 0.00 | 100 | 1016.8 |
| 20260504201008 | 86 | 146 | 3.5 | 6.1 | 0.00 | 0.00 | 0.00 | 100 | 1016.1 |
| 20260504200552 | 86 | 146 | 3.5 | 6.1 | 0.00 | 0.00 | 0.00 | 100 | 1016.1 |
| 20260504200052 | 83 | 71 | 3.5 | 7.8 | 0.00 | 0.00 | 0.00 | 100 | 1016.2 |
| 20260504195552 | 83 | 104 | 2.6 | 9.6 | 0.00 | 0.00 | 0.00 | 100 | 1016.3 |
| 20260504195052 | 82 | 56 | 1.7 | 8.7 | 0.00 | 0.00 | 0.00 | 100 | 1016.4 |
| 20260504194858 | 82 | 78 | 6.1 | 11.3 | 0.00 | 0.00 | 0.00 | 100 | 1016.4 |
| 20260504194552 | 82 | 78 | 6.1 | 11.3 | 0.00 | 0.00 | 0.00 | 100 | 1016.4 |
| 20260504194052 | 85 | 87 | 6.1 | 9.6 | 0.00 | 0.00 | 0.00 | 100 | 1016.4 |
| 20260504193850 | 85 | 7 | 4.3 | 8.7 | 0.00 | 0.00 | 0.00 | 100 | 1016.4 |
| 20260504193552 | 85 | 7 | 4.3 | 8.7 | 0.00 | 0.00 | 0.00 | 100 | 1016.4 |
| 20260504193507 | 83 | 170 | 5.2 | 10.4 | 0.00 | 0.00 | 0.00 | 100 | 1016.3 |
| 20260504193052 | 83 | 170 | 5.2 | 10.4 | 0.00 | 0.00 | 0.00 | 100 | 1016.3 |
| 20260504192939 | 83 | 122 | 6.1 | 10.4 | 0.00 | 0.00 | 0.00 | 100 | 1016.5 |
| 20260504192552 | 83 | 122 | 6.1 | 10.4 | 0.00 | 0.00 | 0.00 | 100 | 1016.5 |
| 20260504192226 | 85 | 67 | 5.2 | 8.7 | 0.00 | 0.00 | 0.00 | 100 | 1016.5 |
| 20260504192052 | 85 | 67 | 5.2 | 8.7 | 0.00 | 0.00 | 0.00 | 100 | 1016.5 |
| 20260504191552 | 84 | 119 | 2.6 | 7.0 | 0.00 | 0.00 | 0.00 | 100 | 1016.6 |
| 20260504191052 | 84 | 120 | 5.2 | 9.6 | 0.00 | 0.00 | 0.00 | 100 | 1016.7 |
| 20260504190835 | 85 | 112 | 4.3 | 8.7 | 0.00 | 0.00 | 0.00 | 100 | 1016.8 |
| 20260504190553 | 85 | 112 | 4.3 | 8.7 | 0.00 | 0.00 | 0.00 | 100 | 1016.8 |
| 20260504190313 | 84 | 49 | 4.3 | 11.3 | 0.00 | 0.00 | 0.00 | 100 | 1016.9 |
| 20260504190053 | 84 | 49 | 4.3 | 11.3 | 0.00 | 0.00 | 0.00 | 100 | 1016.9 |
| 20260504185821 | 85 | 144 | 5.2 | 7.8 | 0.00 | 0.00 | 0.00 | 100 | 1017.0 |
| 20260504185553 | 85 | 144 | 5.2 | 7.8 | 0.00 | 0.00 | 0.00 | 100 | 1017.0 |
| 20260504185331 | 83 | 137 | 5.2 | 10.4 | 0.00 | 0.00 | 0.00 | 100 | 1017.1 |
| 20260504185053 | 83 | 137 | 5.2 | 10.4 | 0.00 | 0.00 | 0.00 | 100 | 1017.1 |
| 20260504184725 | 84 | 113 | 8.7 | 11.3 | 0.00 | 0.00 | 0.00 | 100 | 1017.2 |
| 20260504184553 | 84 | 113 | 8.7 | 11.3 | 0.00 | 0.00 | 0.00 | 100 | 1017.2 |
| 20260504184053 | 85 | 142 | 4.3 | 7.8 | 0.00 | 0.00 | 0.00 | 100 | 1017.2 |
| 20260504184004 | 84 | 99 | 6.1 | 12.2 | 0.00 | 0.00 | 0.00 | 100 | 1017.3 |
| 20260504183553 | 84 | 99 | 6.1 | 12.2 | 0.00 | 0.00 | 0.00 | 100 | 1017.3 |
| 20260504183313 | 84 | 67 | 0.9 | 7.0 | 0.00 | 0.00 | 0.00 | 100 | 1017.4 |
| 20260504183053 | 84 | 67 | 0.9 | 7.0 | 0.00 | 0.00 | 0.00 | 100 | 1017.4 |
| 20260504182553 | 84 | 142 | 3.5 | 12.2 | 0.00 | 0.00 | 0.00 | 100 | 1017.6 |
| 20260504182511 | 83 | 99 | 5.2 | 8.7 | 0.00 | 0.00 | 0.00 | 100 | 1017.7 |
| 20260504182242 | 83 | 99 | 5.2 | 8.7 | 0.00 | 0.00 | 0.00 | 100 | 1017.7 |
| 20260504182053 | 83 | 99 | 5.2 | 8.7 | 0.00 | 0.00 | 0.00 | 100 | 1017.7 |
| 20260504181553 | 83 | 81 | 4.3 | 8.7 | 0.00 | 0.00 | 0.00 | 100 | 1017.7 |
| 20260504181502 | 84 | 5 | 0.9 | 9.6 | 0.00 | 0.00 | 0.00 | 100 | 1017.7 |
| 20260504181053 | 84 | 5 | 0.9 | 9.6 | 0.00 | 0.00 | 0.00 | 100 | 1017.7 |
| 20260504180553 | 85 | 116 | 4.3 | 13.0 | 0.00 | 0.00 | 0.00 | 100 | 1017.7 |
| 20260504180541 | 84 | 120 | 1.7 | 9.6 | 0.00 | 0.00 | 0.00 | 100 | 1017.8 |
| 20260504180053 | 84 | 120 | 1.7 | 9.6 | 0.00 | 0.00 | 0.00 | 100 | 1017.8 |
| 20260504175815 | 84 | 88 | 5.2 | 10.4 | 0.00 | 0.00 | 0.00 | 100 | 1017.9 |
| 20260504175553 | 84 | 88 | 5.2 | 10.4 | 0.00 | 0.00 | 0.00 | 100 | 1017.9 |
| 20260504175121 | 81 | 23 | 7.0 | 12.2 | 0.00 | 0.00 | 0.00 | 100 | 1018.2 |
| 20260504175053 | 83 | 172 | 1.7 | 7.0 | 0.00 | 0.00 | 0.00 | 100 | 1017.9 |
| 20260504175000 | 83 | 75 | 6.1 | 9.6 | 0.00 | 0.00 | 0.00 | 100 | 1018.0 |
| 20260504174553 | 83 | 75 | 6.1 | 9.6 | 0.00 | 0.00 | 0.00 | 100 | 1018.0 |
| 20260504174053 | 83 | 60 | 6.1 | 11.3 | 0.00 | 0.00 | 0.00 | 100 | 1018.1 |
| 20260504173818 | 83 | 64 | 6.1 | 13.9 | 0.00 | 0.00 | 0.00 | 100 | 1018.1 |
| 20260504173553 | 83 | 64 | 6.1 | 13.9 | 0.00 | 0.00 | 0.00 | 100 | 1018.1 |
| 20260504173447 | 81 | 23 | 7.0 | 12.2 | 0.00 | 0.00 | 0.00 | 100 | 1018.2 |
| 20260504173053 | 81 | 23 | 7.0 | 12.2 | 0.00 | 0.00 | 0.00 | 100 | 1018.2 |
| 20260504172553 | 83 | 39 | 7.0 | 13.9 | 0.00 | 0.00 | 0.00 | 100 | 1018.1 |
| 20260504172053 | 83 | 70 | 4.3 | 13.9 | 0.00 | 0.00 | 0.00 | 100 | 1018.3 |
| 20260504171553 | 84 | 104 | 5.2 | 11.3 | 0.00 | 0.00 | 0.00 | 100 | 1018.4 |
| 20260504171059 | 82 | 102 | 4.3 | 11.3 | 0.00 | 0.00 | 0.00 | 100 | 1018.5 |
| 20260504171053 | 84 | 68 | 2.6 | 11.3 | 0.00 | 0.00 | 0.00 | 100 | 1018.3 |
| 20260504171016 | 83 | 63 | 8.7 | 11.3 | 0.00 | 0.00 | 0.00 | 100 | 1018.4 |
| 20260504170802 | 82 | 102 | 4.3 | 11.3 | 0.00 | 0.00 | 0.00 | 100 | 1018.5 |
| 20260504170553 | 83 | 63 | 8.7 | 11.3 | 0.00 | 0.00 | 0.00 | 100 | 1018.4 |
| 20260504160404 | 81 | 97 | 6.1 | 15.6 | 0.00 | 0.00 | 0.00 | 100 | 1019.1 |
| 20260504151053 | 80 | 75 | 3.5 | 11.3 | 0.00 | 0.00 | 0.00 | 100 | 1019.2 |
| 20260504150554 | 79 | 66 | 7.0 | 13.0 | 0.00 | 0.00 | 0.00 | 100 | 1019.2 |
| 20260504141054 | 78 | 7 | 7.8 | 12.2 | 0.00 | 0.00 | 0.00 | 100 | 1019.0 |
| 20260504140655 | 77 | 81 | 10.4 | 13.0 | 0.00 | 0.00 | 0.00 | 100 | 1019.0 |
| 20260504140554 | 76 | 19 | 7.0 | 14.8 | 0.00 | 0.00 | 0.00 | 100 | 1019.0 |
| 20260504140134 | 76 | 68 | 7.0 | 13.9 | 0.00 | 0.00 | 0.00 | 100 | 1018.8 |
| 20260504130554 | 75 | 66 | 5.2 | 7.8 | 0.00 | 0.00 | 0.00 | 100 | 1018.5 |
| 20260504130525 | 72 | 47 | 3.5 | 9.6 | 0.00 | 0.00 | 0.00 | 100 | 1018.4 |
| 20260504130340 | 74 | 91 | 5.2 | 11.3 | 0.00 | 0.00 | 0.00 | 100 | 1018.4 |
| 20260504110655 | 65 | 43 | 1.7 | 6.1 | 0.00 | 0.00 | 0.00 | 100 | 1017.7 |
| 20260504110555 | 65 | 18 | 3.5 | 5.2 | 0.00 | 0.00 | 0.00 | 100 | 1017.8 |
| 20260504110439 | 65 | 46 | 3.5 | 7.8 | 0.00 | 0.00 | 0.00 | 100 | 1017.7 |